Location: ???? ?????
(30.0052°N, 31.2891°E)
Time: 11:38:49
(UTC+00:00)

Hubble Space Telescope - Visible Passes

Search period start: 20 September 2024 00:00
Search period end: 30 September 2024 00:00
Orbit: 505 x 509 km, 28.5° (Epoch: 19 September)

Date Brightness Start Highest point End Pass type
(mag) Time Alt. Az. Time Alt. Az. Time Alt. Az.
24 Sep 3.3 02:26:59 10° S 02:28:18 11° SSE 02:29:38 10° SE visible
25 Sep 3.1 02:06:22 12° S 02:07:20 13° SSE 02:09:12 10° SE visible
26 Sep 3.1 01:46:52 14° SSE 01:46:52 14° SSE 01:48:37 10° ESE visible
27 Sep 3.5 01:27:17 12° ESE 01:27:17 12° ESE 01:27:55 10° ESE visible
27 Sep 1.4 03:01:59 12° WSW 03:05:28 45° SSE 03:09:15 10° E visible
28 Sep 1.2 02:42:20 23° SW 02:44:29 49° SSE 02:48:18 10° E visible
29 Sep 1.0 02:22:38 42° SSW 02:23:30 52° SSE 02:27:19 10° E visible
